Time,TemperatureF,DewpointF,PressureIn,WindDirection,WindDirectionDegrees,WindSpeedMPH,WindSpeedGustMPH,Humidity,HourlyPrecipIn,Conditions,Clouds,dailyrainin,SolarRadiationWatts/m^2,SoftwareType,DateUTC
2013-06-15 00:01:00,60.0,38.0,-100.00,West,266,0.0,0.0,44,0.00,,,0.00,1.000000,,2013-06-15 07:01:00,
2013-06-15 00:11:00,60.0,38.0,-100.00,West,266,0.0,0.0,44,0.00,,,0.00,1.000000,,2013-06-15 07:11:00,
2013-06-15 00:53:00,57.0,41.0,-100.00,WNW,303,0.0,0.0,55,-99.99,,,0.00,0.000000,,2013-06-15 07:53:00,
2013-06-15 01:02:00,57.0,41.0,-100.00,WNW,303,0.0,0.0,55,-99.99,,,0.00,0.000000,,2013-06-15 08:02:00,
2013-06-15 01:11:00,57.0,41.0,-100.00,WNW,303,0.0,0.0,55,-99.99,,,0.00,0.000000,,2013-06-15 08:11:00,
2013-06-15 01:33:00,57.0,41.0,-100.00,WNW,283,0.0,0.0,54,-99.99,,,0.00,1.000000,,2013-06-15 08:33:00,
2013-06-15 01:53:00,57.0,41.0,-100.00,WNW,283,0.0,0.0,54,-99.99,,,0.00,1.000000,,2013-06-15 08:53:00,
2013-06-15 02:02:00,57.0,41.0,-100.00,WNW,283,0.0,0.0,54,-99.99,,,0.00,1.000000,,2013-06-15 09:02:00,
2013-06-15 02:12:00,57.0,41.0,-100.00,WNW,283,0.0,0.0,54,-99.99,,,0.00,1.000000,,2013-06-15 09:12:00,
2013-06-15 02:22:00,57.0,41.0,-100.00,WNW,283,0.0,0.0,54,-99.99,,,0.00,1.000000,,2013-06-15 09:22:00,
2013-06-15 02:33:00,57.0,40.0,-100.00,East,80,0.0,0.0,53,0.00,,,0.00,0.000000,,2013-06-15 09:33:00,
2013-06-15 03:02:00,57.0,40.0,-100.00,East,80,0.0,0.0,53,0.00,,,0.00,0.000000,,2013-06-15 10:02:00,
2013-06-15 03:11:00,57.0,40.0,-100.00,East,80,0.0,0.0,53,0.00,,,0.00,0.000000,,2013-06-15 10:11:00,
2013-06-15 03:23:00,57.0,40.0,-100.00,East,80,0.0,0.0,53,0.00,,,0.00,0.000000,,2013-06-15 10:23:00,
2013-06-15 04:01:00,56.0,41.0,-100.00,SE,133,0.0,0.0,57,0.00,,,0.00,0.000000,,2013-06-15 11:01:00,
2013-06-15 04:33:00,52.0,41.0,-100.00,NW,317,0.0,0.0,65,-99.99,,,0.00,0.000000,,2013-06-15 11:33:00,
2013-06-15 05:01:00,52.0,41.0,-100.00,NW,317,0.0,0.0,65,-99.99,,,0.00,0.000000,,2013-06-15 12:01:00,
2013-06-15 05:11:00,52.0,41.0,-100.00,NW,317,0.0,0.0,65,-99.99,,,0.00,0.000000,,2013-06-15 12:11:00,
2013-06-15 05:22:00,52.0,41.0,-100.00,NW,317,0.0,0.0,65,-99.99,,,0.00,0.000000,,2013-06-15 12:22:00,
2013-06-15 06:02:00,51.0,42.0,-100.00,NW,304,0.0,0.0,72,0.00,,,0.00,1.000000,,2013-06-15 13:02:00,
2013-06-15 06:11:00,51.0,42.0,-100.00,NW,304,0.0,0.0,72,0.00,,,0.00,1.000000,,2013-06-15 13:11:00,
2013-06-15 06:22:00,51.0,42.0,-100.00,NW,304,0.0,0.0,72,0.00,,,0.00,1.000000,,2013-06-15 13:22:00,
2013-06-15 06:32:00,51.0,42.0,-100.00,NW,304,0.0,0.0,72,0.00,,,0.00,1.000000,,2013-06-15 13:32:00,
2013-06-15 07:01:00,53.0,43.0,-100.00,SSW,195,0.0,0.0,68,-99.99,,,0.00,11.000000,,2013-06-15 14:01:00,
2013-06-15 07:12:00,53.0,43.0,-100.00,SSW,195,0.0,0.0,68,-99.99,,,0.00,11.000000,,2013-06-15 14:12:00,
2013-06-15 07:33:00,55.0,43.0,-100.00,NW,307,0.0,0.0,64,-99.99,,,0.00,143.000000,,2013-06-15 14:33:00,
2013-06-15 08:01:00,55.0,43.0,-100.00,NW,307,0.0,0.0,64,-99.99,,,0.00,143.000000,,2013-06-15 15:01:00,
2013-06-15 08:11:00,55.0,43.0,-100.00,NW,307,0.0,0.0,64,-99.99,,,0.00,143.000000,,2013-06-15 15:11:00,
2013-06-15 08:22:00,55.0,43.0,-100.00,NW,307,0.0,0.0,64,-99.99,,,0.00,143.000000,,2013-06-15 15:22:00,
2013-06-15 08:33:00,61.0,44.0,-100.00,WSW,257,0.0,0.0,54,0.00,,,0.00,343.000000,,2013-06-15 15:33:00,
2013-06-15 09:01:00,61.0,44.0,-100.00,WSW,257,0.0,0.0,54,0.00,,,0.00,343.000000,,2013-06-15 16:01:00,
2013-06-15 09:11:00,61.0,44.0,-100.00,WSW,257,0.0,0.0,54,0.00,,,0.00,343.000000,,2013-06-15 16:11:00,
2013-06-15 09:22:00,61.0,44.0,-100.00,WSW,257,0.0,0.0,54,0.00,,,0.00,343.000000,,2013-06-15 16:22:00,
2013-06-15 10:02:00,62.0,47.0,-100.00,South,185,0.0,0.0,58,0.00,,,0.00,533.000000,,2013-06-15 17:02:00,
2013-06-15 10:11:00,62.0,47.0,-100.00,South,185,0.0,0.0,58,0.00,,,0.00,533.000000,,2013-06-15 17:11:00,
2013-06-15 10:21:00,62.0,47.0,-100.00,South,185,0.0,0.0,58,0.00,,,0.00,533.000000,,2013-06-15 17:21:00,
2013-06-15 10:32:00,62.0,47.0,-100.00,South,185,0.0,0.0,58,0.00,,,0.00,533.000000,,2013-06-15 17:32:00,
2013-06-15 11:01:00,68.0,48.0,-100.00,SW,222,0.0,0.0,48,0.00,,,0.00,687.000000,,2013-06-15 18:01:00,
2013-06-15 11:11:00,68.0,48.0,-100.00,SW,222,0.0,0.0,48,0.00,,,0.00,687.000000,,2013-06-15 18:11:00,
2013-06-15 11:22:00,68.0,48.0,-100.00,SW,222,0.0,0.0,48,0.00,,,0.00,687.000000,,2013-06-15 18:22:00,
2013-06-15 11:32:00,68.0,48.0,-100.00,SW,222,0.0,0.0,48,0.00,,,0.00,687.000000,,2013-06-15 18:32:00,
2013-06-15 11:53:00,68.0,46.0,-100.00,South,188,4.0,8.0,46,0.00,,,0.00,855.000000,,2013-06-15 18:53:00,
2013-06-15 12:01:00,68.0,46.0,-100.00,South,188,4.0,8.0,46,0.00,,,0.00,855.000000,,2013-06-15 19:01:00,
2013-06-15 12:11:00,68.0,46.0,-100.00,South,188,4.0,8.0,46,0.00,,,0.00,855.000000,,2013-06-15 19:11:00,
2013-06-15 12:22:00,68.0,46.0,-100.00,South,188,4.0,8.0,46,0.00,,,0.00,855.000000,,2013-06-15 19:22:00,
2013-06-15 12:32:00,68.0,46.0,-100.00,South,188,4.0,8.0,46,0.00,,,0.00,855.000000,,2013-06-15 19:32:00,
2013-06-15 12:33:00,70.0,48.0,-100.00,SSW,213,0.0,12.0,45,0.00,,,0.00,939.000000,,2013-06-15 19:33:00,
2013-06-15 13:02:00,70.0,48.0,-100.00,SSW,213,0.0,12.0,45,0.00,,,0.00,939.000000,,2013-06-15 20:02:00,
2013-06-15 13:11:00,70.0,48.0,-100.00,SSW,213,0.0,12.0,45,0.00,,,0.00,939.000000,,2013-06-15 20:11:00,
2013-06-15 13:22:00,70.0,48.0,-100.00,SSW,213,0.0,12.0,45,0.00,,,0.00,939.000000,,2013-06-15 20:22:00,
2013-06-15 13:33:00,73.0,47.0,-100.00,WSW,247,1.0,11.0,40,0.00,,,0.00,983.000000,,2013-06-15 20:33:00,
2013-06-15 13:53:00,73.0,47.0,-100.00,WSW,247,1.0,11.0,40,0.00,,,0.00,983.000000,,2013-06-15 20:53:00,
2013-06-15 14:01:00,73.0,47.0,-100.00,WSW,247,1.0,11.0,40,0.00,,,0.00,983.000000,,2013-06-15 21:01:00,
2013-06-15 14:11:00,73.0,47.0,-100.00,WSW,247,1.0,11.0,40,0.00,,,0.00,983.000000,,2013-06-15 21:11:00,
2013-06-15 14:22:00,73.0,47.0,-100.00,WSW,247,1.0,11.0,40,0.00,,,0.00,983.000000,,2013-06-15 21:22:00,
2013-06-15 15:01:00,71.0,47.0,-100.00,West,279,7.0,20.0,42,0.00,,,0.00,974.000000,,2013-06-15 22:01:00,
2013-06-15 15:11:00,71.0,47.0,-100.00,West,279,7.0,20.0,42,0.00,,,0.00,974.000000,,2013-06-15 22:11:00,
2013-06-15 15:22:00,71.0,47.0,-100.00,West,279,7.0,20.0,42,0.00,,,0.00,974.000000,,2013-06-15 22:22:00,
2013-06-15 15:32:00,71.0,47.0,-100.00,West,279,7.0,20.0,42,0.00,,,0.00,974.000000,,2013-06-15 22:32:00,
2013-06-15 15:33:00,67.0,44.0,-100.00,West,261,14.0,31.0,44,0.00,,,0.00,914.000000,,2013-06-15 22:33:00,
2013-06-15 15:53:00,67.0,44.0,-100.00,West,261,14.0,31.0,44,0.00,,,0.00,914.000000,,2013-06-15 22:53:00,
2013-06-15 16:02:00,67.0,44.0,-100.00,West,261,14.0,31.0,44,0.00,,,0.00,914.000000,,2013-06-15 23:02:00,
2013-06-15 16:11:00,67.0,44.0,-100.00,West,261,14.0,31.0,44,0.00,,,0.00,914.000000,,2013-06-15 23:11:00,
2013-06-15 16:22:00,67.0,44.0,-100.00,West,261,14.0,31.0,44,0.00,,,0.00,914.000000,,2013-06-15 23:22:00,
2013-06-15 16:33:00,64.0,44.0,-100.00,West,273,0.0,24.0,49,0.00,,,0.00,804.000000,,2013-06-15 23:33:00,
2013-06-15 16:53:00,64.0,44.0,-100.00,West,273,0.0,24.0,49,0.00,,,0.00,804.000000,,2013-06-15 23:53:00,
2013-06-15 17:01:00,64.0,44.0,-100.00,West,273,0.0,24.0,49,0.00,,,0.00,804.000000,,2013-06-16 00:01:00,
2013-06-15 17:11:00,64.0,44.0,-100.00,West,273,0.0,24.0,49,0.00,,,0.00,804.000000,,2013-06-16 00:11:00,
2013-06-15 17:22:00,64.0,44.0,-100.00,West,273,0.0,24.0,49,0.00,,,0.00,804.000000,,2013-06-16 00:22:00,
2013-06-15 17:33:00,63.0,44.0,-100.00,West,266,12.0,23.0,50,0.00,,,0.00,652.000000,,2013-06-16 00:33:00,
2013-06-15 18:01:00,63.0,44.0,-100.00,West,266,12.0,23.0,50,0.00,,,0.00,652.000000,,2013-06-16 01:01:00,
2013-06-15 18:11:00,63.0,44.0,-100.00,West,266,12.0,23.0,50,0.00,,,0.00,652.000000,,2013-06-16 01:11:00,
2013-06-15 18:22:00,63.0,44.0,-100.00,West,266,12.0,23.0,50,0.00,,,0.00,652.000000,,2013-06-16 01:22:00,
2013-06-15 18:33:00,64.0,42.0,-100.00,WNW,283,6.0,24.0,44,0.00,,,0.00,467.000000,,2013-06-16 01:33:00,
2013-06-15 18:53:00,64.0,42.0,-100.00,WNW,283,6.0,24.0,44,0.00,,,0.00,467.000000,,2013-06-16 01:53:00,
2013-06-15 19:01:00,64.0,42.0,-100.00,WNW,283,6.0,24.0,44,0.00,,,0.00,467.000000,,2013-06-16 02:01:00,
2013-06-15 19:12:00,64.0,42.0,-100.00,WNW,283,6.0,24.0,44,0.00,,,0.00,467.000000,,2013-06-16 02:12:00,
2013-06-15 19:22:00,64.0,42.0,-100.00,WNW,283,6.0,24.0,44,0.00,,,0.00,467.000000,,2013-06-16 02:22:00,
2013-06-15 19:33:00,64.0,39.0,-100.00,NNW,343,0.0,14.0,40,0.00,,,0.00,271.000000,,2013-06-16 02:33:00,
2013-06-15 19:53:00,64.0,39.0,-100.00,NNW,343,0.0,14.0,40,0.00,,,0.00,271.000000,,2013-06-16 02:53:00,
2013-06-15 20:02:00,64.0,39.0,-100.00,NNW,343,0.0,14.0,40,0.00,,,0.00,271.000000,,2013-06-16 03:02:00,
2013-06-15 20:11:00,64.0,39.0,-100.00,NNW,343,0.0,14.0,40,0.00,,,0.00,271.000000,,2013-06-16 03:11:00,
2013-06-15 20:22:00,64.0,39.0,-100.00,NNW,343,0.0,14.0,40,0.00,,,0.00,271.000000,,2013-06-16 03:22:00,
2013-06-15 20:33:00,57.0,41.0,-100.00,NNW,338,8.0,14.0,54,0.00,,,0.00,82.000000,,2013-06-16 03:33:00,
2013-06-15 20:53:00,57.0,41.0,-100.00,NNW,338,8.0,14.0,54,0.00,,,0.00,82.000000,,2013-06-16 03:53:00,
2013-06-15 21:01:00,57.0,41.0,-100.00,NNW,338,8.0,14.0,54,0.00,,,0.00,82.000000,,2013-06-16 04:01:00,
2013-06-15 21:12:00,57.0,41.0,-100.00,NNW,338,8.0,14.0,54,0.00,,,0.00,82.000000,,2013-06-16 04:12:00,
2013-06-15 21:23:00,57.0,41.0,-100.00,NNW,338,8.0,14.0,54,0.00,,,0.00,82.000000,,2013-06-16 04:23:00,
2013-06-15 21:33:00,55.0,42.0,-100.00,NW,313,6.0,17.0,61,0.00,,,0.00,2.000000,,2013-06-16 04:33:00,
2013-06-15 21:53:00,55.0,42.0,-100.00,NW,313,6.0,17.0,61,0.00,,,0.00,2.000000,,2013-06-16 04:53:00,
2013-06-15 22:01:00,55.0,42.0,-100.00,NW,313,6.0,17.0,61,0.00,,,0.00,2.000000,,2013-06-16 05:01:00,
2013-06-15 22:11:00,55.0,42.0,-100.00,NW,313,6.0,17.0,61,0.00,,,0.00,2.000000,,2013-06-16 05:11:00,
2013-06-15 22:22:00,55.0,42.0,-100.00,NW,313,6.0,17.0,61,0.00,,,0.00,2.000000,,2013-06-16 05:22:00,
2013-06-15 22:33:00,52.0,42.0,-100.00,WSW,243,0.0,10.0,69,0.00,,,0.00,0.000000,,2013-06-16 05:33:00,
2013-06-15 22:52:00,52.0,42.0,-100.00,WSW,243,0.0,10.0,69,0.00,,,0.00,0.000000,,2013-06-16 05:52:00,
2013-06-15 23:01:00,52.0,42.0,-100.00,WSW,243,0.0,10.0,69,0.00,,,0.00,0.000000,,2013-06-16 06:01:00,
2013-06-15 23:11:00,52.0,42.0,-100.00,WSW,243,0.0,10.0,69,0.00,,,0.00,0.000000,,2013-06-16 06:11:00,
2013-06-15 23:22:00,52.0,42.0,-100.00,WSW,243,0.0,10.0,69,0.00,,,0.00,0.000000,,2013-06-16 06:22:00,